Météo par heure à Allassac

Ce jour, 15 Mai, Samedi

Heure Température Précipitation Vent Pression Humidité
00:00 +8°C° 0 mm 1 m/s 734 mmHg 92%
01:00 +8°C° 1.5 mm 1 m/s 733 mmHg 94%
02:00 +7°C° 1.5 mm 2 m/s 733 mmHg 96%
03:00 +7°C° 1.5 mm 2 m/s 732 mmHg 98%
04:00 +7°C° 1.9 mm 2 m/s 732 mmHg 98%
05:00 +7°C° 1.9 mm 2 m/s 732 mmHg 99%
06:00 +8°C° 0 mm 2 m/s 732 mmHg 99%
07:00 +8°C° 1.5 mm 2 m/s 732 mmHg 99%
08:00 +8°C° 1.5 mm 2 m/s 732 mmHg 99%
09:00 +9°C° 1.5 mm 1 m/s 732 mmHg 99%
10:00 +10°C° 1.9 mm 1 m/s 732 mmHg 99%
11:00 +10°C° 1.9 mm 1 m/s 732 mmHg 99%
12:00 +10°C° 1.9 mm 1 m/s 732 mmHg 99%
13:00 +11°C° 0.8 mm 1 m/s 732 mmHg 99%
14:00 +11°C° 0.8 mm 1 m/s 732 mmHg 98%
15:00 +12°C° 0.8 mm 2 m/s 732 mmHg 98%
16:00 +12°C° 0.2 mm 2 m/s 732 mmHg 98%
17:00 +12°C° 0.2 mm 1 m/s 733 mmHg 98%
18:00 +12°C° 0.2 mm 1 m/s 733 mmHg 98%
19:00 +11°C° 0.1 mm 1 m/s 733 mmHg 98%
20:00 +11°C° 0.1 mm 1 m/s 733 mmHg 99%
21:00 +11°C° 0.1 mm 1 m/s 733 mmHg 99%
22:00 +11°C° 0.6 mm 1 m/s 732 mmHg 99%
23:00 +11°C° 0.6 mm 1 m/s 732 mmHg 99%

Demain, 16 Mai, Dimanche

Heure Température Précipitation Vent Pression Humidité
00:00 +11°C° 0.6 mm 1 m/s 731 mmHg 99%
01:00 +11°C° 1.1 mm 1 m/s 731 mmHg 99%
02:00 +11°C° 1.1 mm 1 m/s 730 mmHg 99%
03:00 +11°C° 1.1 mm 1 m/s 730 mmHg 99%
04:00 +11°C° 0.7 mm 1 m/s 730 mmHg 99%
05:00 +12°C° 0.7 mm 1 m/s 730 mmHg 99%
06:00 +12°C° 0.7 mm 1 m/s 730 mmHg 99%
07:00 +12°C° 0.4 mm 2 m/s 730 mmHg 98%
08:00 +13°C° 0.4 mm 2 m/s 731 mmHg 98%
09:00 +14°C° 0.4 mm 2 m/s 731 mmHg 98%
10:00 +13°C° 0.3 mm 3 m/s 731 mmHg 92%
11:00 +14°C° 0.3 mm 3 m/s 732 mmHg 86%
12:00 +16°C° 0.3 mm 3 m/s 732 mmHg 80%
13:00 +16°C° 0.1 mm 3 m/s 732 mmHg 71%
14:00 +15°C° 0.1 mm 4 m/s 732 mmHg 62%
15:00 +17°C° 0.1 mm 4 m/s 732 mmHg 53%
16:00 +15°C° 0 mm 4 m/s 732 mmHg 57%
17:00 +14°C° 0 mm 3 m/s 733 mmHg 60%
18:00 +13°C° 0 mm 3 m/s 733 mmHg 64%
19:00 +12°C° 0 mm 3 m/s 733 mmHg 73%
20:00 +10°C° 0 mm 2 m/s 734 mmHg 83%
21:00 +9°C° 0 mm 2 m/s 734 mmHg 92%
22:00 +8°C° 0.1 mm 2 m/s 734 mmHg 94%
23:00 +8°C° 0.1 mm 2 m/s 734 mmHg 96%

Après-demain, 17 Mai, Lundi

Heure Température Précipitation Vent Pression Humidité
00:00 +7°C° 0.1 mm 2 m/s 734 mmHg 98%
01:00 +7°C° 0.1 mm 2 m/s 734 mmHg 98%
02:00 +8°C° 0.1 mm 2 m/s 734 mmHg 97%
03:00 +8°C° 0.1 mm 2 m/s 734 mmHg 97%
04:00 +8°C° 0.1 mm 2 m/s 735 mmHg 97%
05:00 +8°C° 0.1 mm 2 m/s 735 mmHg 97%
06:00 +8°C° 0.1 mm 2 m/s 735 mmHg 97%
07:00 +9°C° 0.2 mm 2 m/s 736 mmHg 94%
08:00 +10°C° 0.2 mm 3 m/s 736 mmHg 92%
09:00 +11°C° 0.2 mm 3 m/s 736 mmHg 90%
10:00 +12°C° 0.5 mm 3 m/s 736 mmHg 84%
11:00 +13°C° 0.5 mm 3 m/s 736 mmHg 79%
12:00 +13°C° 0.5 mm 4 m/s 736 mmHg 74%
13:00 +14°C° 0.4 mm 4 m/s 736 mmHg 72%
14:00 +14°C° 0.4 mm 4 m/s 736 mmHg 69%
15:00 +14°C° 0.4 mm 4 m/s 736 mmHg 67%
16:00 +14°C° 0.2 mm 4 m/s 737 mmHg 69%
17:00 +13°C° 0.2 mm 4 m/s 737 mmHg 72%
18:00 +12°C° 0.2 mm 3 m/s 737 mmHg 74%
19:00 +10°C° 0 mm 3 m/s 738 mmHg 81%
20:00 +9°C° 0 mm 2 m/s 738 mmHg 89%
21:00 +8°C° 0 mm 1 m/s 739 mmHg 96%
22:00 +8°C° 0.1 mm 1 m/s 739 mmHg 96%
23:00 +8°C° 0.1 mm 1 m/s 739 mmHg 96%

18 Mai, Mardi

Heure Température Précipitation Vent Pression Humidité
00:00 +7°C° 0.1 mm 1 m/s 740 mmHg 96%
01:00 +8°C° 0.1 mm 1 m/s 740 mmHg 97%
02:00 +8°C° 0.1 mm 1 m/s 740 mmHg 98%
03:00 +8°C° 0.1 mm 1 m/s 740 mmHg 98%
04:00 +8°C° 0 mm 1 m/s 740 mmHg 98%
05:00 +8°C° 0 mm 1 m/s 741 mmHg 98%
06:00 +9°C° 0 mm 1 m/s 741 mmHg 98%
07:00 +10°C° 0.1 mm 1 m/s 741 mmHg 93%
08:00 +10°C° 0.1 mm 2 m/s 742 mmHg 89%
09:00 +12°C° 0.1 mm 2 m/s 742 mmHg 85%
10:00 +13°C° 0.1 mm 2 m/s 742 mmHg 75%
11:00 +14°C° 0.1 mm 2 m/s 742 mmHg 66%
12:00 +14°C° 0.1 mm 3 m/s 742 mmHg 56%
13:00 +16°C° 0 mm 3 m/s 741 mmHg 54%
14:00 +16°C° 0 mm 3 m/s 741 mmHg 52%
15:00 +17°C° 0 mm 3 m/s 741 mmHg 50%
16:00 +16°C° 0 mm 3 m/s 741 mmHg 55%
17:00 +15°C° 0 mm 2 m/s 741 mmHg 61%
18:00 +14°C° 0 mm 2 m/s 742 mmHg 66%
19:00 +12°C° 0 mm 2 m/s 742 mmHg 76%
20:00 +10°C° 0 mm 1 m/s 742 mmHg 86%
21:00 +7°C° 0 mm 0 m/s 743 mmHg 95%
22:00 +7°C° 0 mm 0 m/s 743 mmHg 96%
23:00 +6°C° 0 mm 0 m/s 743 mmHg 97%

19 Mai, Mercredi

Heure Température Précipitation Vent Pression Humidité
00:00 +6°C° 0 mm 0 m/s 743 mmHg 98%
01:00 +5°C° 0 mm 0 m/s 743 mmHg 98%
02:00 +5°C° 0 mm 0 m/s 743 mmHg 98%
03:00 +5°C° 0 mm 0 m/s 742 mmHg 98%
04:00 +5°C° 0 mm 0 m/s 743 mmHg 97%
05:00 +6°C° 0 mm 0 m/s 743 mmHg 96%
06:00 +7°C° 0 mm 0 m/s 743 mmHg 95%
07:00 +8°C° 0 mm 0 m/s 743 mmHg 91%
08:00 +10°C° 0 mm 1 m/s 743 mmHg 86%
09:00 +12°C° 0 mm 1 m/s 743 mmHg 82%
10:00 +13°C° 0.1 mm 1 m/s 743 mmHg 75%
11:00 +14°C° 0.1 mm 1 m/s 743 mmHg 69%
12:00 +15°C° 0.1 mm 1 m/s 743 mmHg 62%
13:00 +16°C° 0.1 mm 1 m/s 742 mmHg 59%
14:00 +16°C° 0.1 mm 1 m/s 742 mmHg 57%
15:00 +18°C° 0.1 mm 1 m/s 742 mmHg 54%
16:00 +18°C° 0 mm 1 m/s 741 mmHg 59%
17:00 +16°C° 0 mm 1 m/s 741 mmHg 63%
18:00 +16°C° 0 mm 1 m/s 741 mmHg 67%
19:00 +13°C° 0 mm 0 m/s 741 mmHg 75%
20:00 +11°C° 0 mm 0 m/s 741 mmHg 82%
21:00 +9°C° 0 mm 0 m/s 741 mmHg 90%
22:00 +9°C° 0 mm 0 m/s 741 mmHg 91%
23:00 +9°C° 0 mm 1 m/s 740 mmHg 92%

20 Mai, Jeudi

Heure Température Précipitation Vent Pression Humidité
00:00 +9°C° 0 mm 1 m/s 740 mmHg 92%
01:00 +9°C° 0 mm 1 m/s 740 mmHg 93%
02:00 +8°C° 0 mm 1 m/s 740 mmHg 93%
03:00 +8°C° 0 mm 1 m/s 739 mmHg 93%
04:00 +9°C° 0 mm 1 m/s 739 mmHg 88%
05:00 +10°C° 0 mm 1 m/s 739 mmHg 82%
06:00 +11°C° 0 mm 1 m/s 739 mmHg 77%
07:00 +13°C° 0 mm 1 m/s 739 mmHg 68%
08:00 +16°C° 0 mm 2 m/s 739 mmHg 60%
09:00 +18°C° 0 mm 2 m/s 739 mmHg 52%
10:00 +19°C° 0 mm 3 m/s 739 mmHg 49%
11:00 +21°C° 0 mm 3 m/s 739 mmHg 46%
12:00 +22°C° 0 mm 4 m/s 739 mmHg 44%
13:00 +21°C° 0.1 mm 4 m/s 739 mmHg 51%
14:00 +20°C° 0.1 mm 4 m/s 739 mmHg 59%
15:00 +19°C° 0.1 mm 4 m/s 739 mmHg 66%
16:00 +18°C° 0.1 mm 4 m/s 739 mmHg 65%
17:00 +16°C° 0.1 mm 3 m/s 739 mmHg 65%
18:00 +14°C° 0.1 mm 3 m/s 739 mmHg 64%
19:00 +13°C° 0 mm 2 m/s 740 mmHg 74%
20:00 +10°C° 0 mm 2 m/s 741 mmHg 83%
21:00 +9°C° 0 mm 1 m/s 741 mmHg 93%
22:00 +8°C° 0 mm 1 m/s 741 mmHg 95%
23:00 +8°C° 0 mm 1 m/s 741 mmHg 96%
Voir plus

Nous avons besoin de votre consentement

Meteoprog et ses fournisseurs de services peuvent stocker et accéder à des données personnelles telles que des cookies, des identifiants d'appareils ou d'autres technologies similaires sur votre appareil et traiter ces données pour personnaliser le contenu et les publicités, ainsi que pour fournir des fonctionnalités de médias sociaux et analyser le trafic.

  • Stocker et/ou accéder à des informations sur votre appareil

    Des cookies, des identifiants d'appareils ou d'autres informations peuvent être stockés ou accessibles sur votre appareil aux fins indiquées ci-dessus.

  • Annonces et contenus personnalisés, mesure des annonces et des contenus, connaissance de l'audience et développement de produits

    Les annonces et le contenu peuvent être personnalisés en fonction d'un profil. D'autres données peuvent être ajoutées pour mieux personnaliser les annonces et le contenu. Les performances des publicités et du contenu peuvent être mesurées. Il est possible d'obtenir des informations sur le public qui a vu les publicités et le contenu. Ces données peuvent être utilisées pour développer ou améliorer l'expérience de l'utilisateur, les systèmes et les logiciels.

En cliquant sur "J'accepte", vous autorisez l'utilisation de cookies, des identifiants d'appareils, des balises web ou d'autres technologies similaires. Vos paramètres peuvent être modifiés dans le navigateur de votre appareil.

Dans certains cas, des intérêts légitimes peuvent être invoqués plutôt qu'un consentement. Vous pouvez en savoir plus à ce sujet dans notre Politique de confidentialité et de cookies.